User: anonymous   Login
Location: Ash Swamp
(41.5170°N, 74.6157°W)
Time: 00:21:05
(UTC+00:00)
Language:

FREGAT/IRIS - Orbit

View from above orbital plane
View from above orbital plane
View from above satellite
View from above satellite

Ground track
Ground track

The orbit data is extracted from the following two-line orbital elements,

1 35867U 09049C   20272.46621208  .00041801  00000-0  17714-3 0  9990
2 35867  96.9178 311.7940 0001489  42.9725  64.1503 15.85255171622376
Epoch (UTC): 28 September 2020 11:11:20
Eccentricity: 0.0001489
inclination: 96.9178°
perigee height: 314 km
apogee height: 316 km
right ascension of ascending node: 311.7940°
argument of perigee: 42.9725°
revolutions per day: 15.85255171
mean anomaly at epoch: 64.1503°
orbit number at epoch: 62237

The dashed part of the orbit path shows where the satellite is in the earth's shadow,  

DLR